sat.trackr.live / text

‹ back to catalog

GRUS-3B

NORAD 69918 · 2026-156BB

PAYLOAD ACTIVE UNKNOWN

§ Identity

Operator
Country
JPN
Launch date
2026-07-07
Launch site
AFWTR
Launch vehicle
Mass (kg)
RCS (m²)

External: N2YO · Heavens-Above · Gunter

§ Orbital elements

Epoch: 2026-09-20T01:32:09.853152Z

Period
96.53 min
Inclination
97.7467°
Eccentricity
0.0004778
Mean motion
14.91833222 rev/d
Perigee alt
588.9 km
Apogee alt
595.5 km
Semi-major
6,970.4 km
B*
7.9476e-5
RAAN
162.2818°
Arg perigee
266.4972°
Mean anomaly
93.5700°
Rev number
1,114

§ Raw data

GRUS-3B1 69918U 26156BB  26263.06400293  .00000747  00000+0  79476-4 0  99902 69918  97.7467 162.2818 0004778 266.4972  93.5700 14.91833222 11141

JSON: /api/v1/satellites/69918 · /tle

For live sub-satellite position, see the globe view (requires WebGL).

§ Visibility from observer

Set your observer location to see the next 7 days of passes ≥ 10°. The values pass through the URL so the page stays shareable.

No JS? Fill the form by hand. The geolocation button needs JavaScript.